AKDT,Max TemperatureF,Mean TemperatureF,Min TemperatureF,Max Dew PointF,MeanDew PointF,Min DewpointF,Max Humidity, Mean Humidity, Min Humidity, Max Sea Level PressureIn, Mean Sea Level PressureIn, Min Sea Level PressureIn, Max VisibilityMiles, Mean VisibilityMiles, Min VisibilityMiles, Max Wind SpeedMPH, Mean Wind SpeedMPH, Max Gust SpeedMPH,PrecipitationIn, CloudCover, Events, WindDirDegrees
2013-5-1,48,42,37,45,40,34,93,86,81,30.30,30.14,30.05,10,8,4,15,6,28,0.53,8,Rain,167
2013-5-2,48,46,44,46,44,43,100,93,86,30.54,30.37,30.16,10,9,3,10,4,,0.08,8,Rain,223
2013-5-3,55,49,43,46,44,41,100,89,69,30.57,30.51,30.41,10,10,7,7,2,,0.13,7,Rain,279
2013-5-4,53,49,46,48,46,43,100,88,80,30.41,30.38,30.33,10,10,7,9,3,,0.01,8,Rain,227
2013-5-5,57,50,43,47,44,41,93,85,69,30.32,30.14,30.03,10,10,10,9,2,,0.00,6,,208
2013-5-6,55,46,39,41,39,37,93,75,59,30.18,30.11,30.03,10,10,10,10,4,,0.00,4,,217
2013-5-7,59,46,34,41,37,32,100,79,45,30.17,30.12,30.06,10,8,0,9,2,,0.00,1,Fog,227
2013-5-8,64,50,35,42,37,34,100,72,40,30.16,30.10,30.07,10,8,0,9,1,,0.01,0,Fog,223
2013-5-9,66,52,39,45,42,36,100,81,40,30.22,30.20,30.17,10,7,1,9,2,,0.00,2,,217
2013-5-10,57,50,42,47,44,42,100,91,69,30.22,30.15,29.98,10,5,0,8,1,,0.00,7,Fog,238
2013-5-11,57,52,48,50,47,43,93,83,71,29.94,29.79,29.64,10,10,5,12,5,22,0.16,8,Rain,15
2013-5-12,55,51,48,51,48,46,100,92,82,29.67,29.62,29.58,10,8,2,7,3,,0.39,8,Rain,331
2013-5-13,53,50,45,49,46,42,100,90,77,29.80,29.69,29.61,10,9,2,9,4,23,0.35,8,Rain,204
2013-5-14,51,48,46,48,45,42,100,89,82,29.92,29.88,29.81,10,9,2,8,3,,0.43,8,Rain,227
2013-5-15,59,52,46,48,45,43,93,81,64,30.01,29.94,29.87,10,10,8,9,5,,0.01,8,,29
2013-5-16,55,50,46,49,45,44,100,84,67,30.01,29.97,29.88,10,10,7,8,2,,0.01,8,Rain,231
2013-5-17,57,52,46,48,46,42,100,91,57,29.86,29.80,29.75,10,6,1,9,1,,0.43,8,Rain,226
2013-5-18,48,44,39,47,43,33,100,90,68,30.35,29.97,29.77,10,8,1,10,4,20,0.35,8,Rain,222
2013-5-19,48,42,37,38,35,32,93,82,58,30.54,30.49,30.37,10,9,2,12,3,18,0.14,8,Rain,221
2013-5-20,51,44,36,37,33,27,93,65,46,30.49,30.34,30.19,10,10,10,14,3,21,0.01,7,,310
2013-5-21,66,55,44,33,29,26,61,39,24,30.18,30.04,29.96,10,10,10,17,9,30,0.00,0,,9
2013-5-22,66,52,39,42,38,32,93,65,32,30.04,29.99,29.96,10,10,9,13,2,17,0.00,0,,204
2013-5-23,61,50,41,43,41,39,96,74,51,30.02,29.96,29.94,10,9,4,12,3,18,0.00,0,,198
2013-5-24,61,52,45,46,44,42,93,80,58,30.04,29.97,29.93,10,10,10,7,2,,0.00,6,Rain,234
2013-5-25,60,54,46,49,47,43,100,84,62,30.06,30.03,29.99,10,8,3,7,1,,0.07,8,Rain,230
2013-5-26,61,50,41,48,45,39,93,79,57,30.00,29.93,29.88,10,10,10,7,1,,0.00,5,,218
2013-5-27,68,56,43,47,45,41,97,73,47,29.88,29.75,29.64,10,10,6,10,2,,0.01,1,,219
2013-5-28,69,55,44,53,48,42,93,79,56,29.64,29.60,29.57,10,10,4,9,2,,0.00,4,Rain,220
2013-5-29,60,52,45,52,49,43,100,88,65,29.86,29.73,29.61,10,10,4,6,2,,0.24,7,Rain,236
2013-5-30,63,52,41,50,45,39,100,85,60,30.12,29.95,29.87,10,7,0,10,2,,0.00,5,Fog,223
2013-5-31,57,52,48,50,48,45,100,90,74,30.25,30.21,30.13,10,8,4,6,2,,0.53,8,Rain,227